Regional Weather Roundup
Issued by NWS Charleston, SC

Current Version | Previous Version | Graphics & Text | Print | Product List | Glossary On
Versions: 1 2 3 4 5 6 7 8 9 10 11 12 13 14 15 16 17 18 19 20 21 22 23 24 25 26 27 28 29 30 31 32 33 34 35 36 37 38 39 40 41 42 43 44 45 46 47 48 49 50
499 ASUS42 KCHS 270513 RWRCHS REGIONAL WEATHER ROUNDUP NATIONAL WEATHER SERVICE CHARLESTON SC 100 AM EDT FRI MAY 27 2016 NOTE: "FAIR" INDICATES FEW OR NO CLOUDS BELOW 12,000 FEET WITH NO SIGNIFICANT WEATHER AND/OR OBSTRUCTIONS TO VISIBILITY. NOT ALL STATIONS ARE QUALITY CONTROLLED. USE DATA WITH CAUTION... ESPECIALLY DEWPOINT OBSERVATIONS. SCZ027-030-031-034>040-042>050-270600- ...SOUTHEAST SOUTH CAROLINA... CITY SKY/WX TMP DP RH WIND PRES REMARKS N CHARLESTON CLEAR 70 64 81 CALM 30.13F WATERFRONT PRK N/A 76 66 71 S6 30.11F MOUNT PLEASANT FAIR 66 63 88 CALM 30.13F JOHNS ISLAND FAIR 75 64 69 CALM 30.13F PINOPOLIS N/A 73 64 73 CALM 30.07S MONCKS CORNER FAIR 63 59 88 CALM 30.14S SUMMERVILLE FAIR 64 64 100 CALM 30.15S BEAUFORT MCAS CLEAR 70 64 81 S3 30.13F BEAUFORT ARPT FAIR 72 61 68 CALM 30.13F HILTON HEAD IS CLEAR 73 61 64 VRB3 30.14F WALTERBORO CLEAR 66 64 94 CALM 30.14F ALLENDALE FAIR 68 61 77 SE3 30.12F ...SOUTHERN MIDLANDS AND PEE DEE... CITY SKY/WX TMP DP RH WIND PRES REMARKS GEORGETOWN FAIR 64 61 88 CALM 30.15S KINGSTREE FAIR 66 59 77 SE5 30.14S ORANGEBURG CLEAR 68 61 78 S3 30.14F BARNWELL FAIR 72 64 78 CALM 30.13F AIKEN FAIR 70 55 60 S6 30.16R MANNING FAIR 70 63 78 S6 30.13F COLUMBIA PTCLDY 74 58 57 S7 30.13R SUMTER CLEAR 70 60 69 S6 30.11S FLORENCE CLEAR 69 61 75 S5 30.14S MYRTLE BEACH CLEAR 75 61 60 S12 30.16F N MYRTLE BEACH CLEAR 74 65 73 S8 30.13F $$ GAZ063-065-086>088-099>101-113>116-118-119-134>141-150-270600- ...SOUTHEAST GEORGIA... CITY SKY/WX TMP DP RH WIND PRES REMARKS SAVANNAH ARPT CLEAR 70 63 78 CALM 30.13F HUNTER AAF CLEAR 71 64 78 SE5 30.10F FORT STEWART CLEAR 64 60 87 CALM 30.09F STATESBORO CLEAR 70 64 83 CALM 30.12S SYLVANIA CLEAR 70 64 81 CALM 30.13F CLAXTON FAIR 65 62 89 CALM 30.12F ...CSRA...CENTRAL AND FAR SOUTHEAST GEORGIA... CITY SKY/WX TMP DP RH WIND PRES REMARKS THOMSON CLEAR 75 65 70 S5 30.16R AUGUSTA-BUSH CLEAR 70 58 65 SE5 30.11R AUGUSTA-DANIEL CLEAR 75 56 51 S6 30.13R SWAINSBORO FAIR 72 59 64 S5 30.13S VIDALIA CLEAR 70 61 73 SE6 30.11F EASTMAN FAIR 72 58 60 SE6 30.13S HAZLEHURST FAIR 71 62 71 CALM 30.10F ALMA CLEAR 67 61 81 E5 30.10F WAYCROSS CLEAR 67 63 86 SE3 30.11F JESUP FAIR 61 59 94 CALM 30.11F BAXLEY FAIR 70 63 78 CALM 30.10F BRUNSWICK CLEAR 66 63 88 E5 30.11F SAINT SIMONS CLEAR 74 59 59 SE9 30.11F $$ SCZ027-028-034-036>038-045-046-048>050-GAZ119-141-270600- ...LAKE AND SUPPLEMENTAL COASTAL OBSERVATIONS... STATION/POSITION TIME TEMP WIND PRES WAVE SWELL AIR SEA DIR/SP/G HT/PER HT/PER/DIR (UTC) (F) (DEG/KT/KT) (MB) (FT/S) (FT/S/D) WINYAH BAY NOT AVBL LAKE MURRAY 0400 76 170/ 10/ 15 1019.0S ACE BASIN NERRS NOT AVBL FORT PULASKI 0400 75 77 130/ 4/ 5 1021.0F SAPELO ISLAND 0400 71 120/ 3 1021.0S $$ ANZ835-935-AMZ111-154-330-350-352-354-370-450-454-472-270600- ...C-MAN AND BUOY OBSERVATIONS... STATION/POSITION TIME TEMP WIND PRES WAVE SWELL AIR SEA DIR/SP/G HT/PER HT/PER/DIR (UTC) (F) (DEG/KT/KT) (MB) (FT/S) (FT/S/D) BUOY 41004 0450 77 77 120/ 10/ 12 1020.2F 2/ 7 2/ 7 BUOY 41008 0450 77 76 120/ 10/ 14 1020.2F 2/ 8 2/120/ 8 FOLLY BEACH CMAN 0400 77 150/ 10/ 11 1020.8F CAPERS NEARSHORE 0408 77 77 160/ 12/ 16 1020.3F FRIPP NEARSHORE 0408 77 77 150/ 10/ 14 1019.9F STATION/POSITION TIME TEMP WIND PRES WAVE SWELL AIR SEA DIR/SP/G HT/PER HT/PER/DIR (UTC) (F) (DEG/KT/KT) (MB) (FT/S) (FT/S/D) 5E ST. MARYS GA 0401 78 N/A 3/ 4 FRYING PAN BUOY 0400 77 76 130/ 10/ 12 1021.1F BUOY 41025 0450 76 71 170/ 10/ 12 1021.4F 2/ 8 2/150/ 8 CAPE LOOKOUT NC 0400 73 190/ 5/ 6 1021.4F BUOY 41002 0450 76 77 80/ 14/ 16 1020.0F 3/ 7 2/ 90/ 7 BUOY 41010 0420 76 78 70/ 12/ 16 1018.2F ST AUGUSTINE FL 0500 77 80 80/ 13/ 14 1020.0F $$

USA.gov is the U.S. government's official web portal to all federal, state and local government web resources and services.